Regional Weather Roundup
Issued by NWS State College, PA

Home | Current Version | Previous Version | Graphics & Text | Print | Product List | Glossary Off
Versions: 1 2 3 4 5 6 7 8 9 10 11 12 13 14 15 16 17 18 19 20 21 22 23 24 25 26 27 28 29 30 31 32 33 34 35 36 37 38 39 40 41 42 43 44 45 46 47 48 49 50

000
ASUS41 KCTP 251903
RWRCTP

REGIONAL WEATHER ROUNDUP
NATIONAL WEATHER SERVICE STATE COLLEGE PA
200 PM EST TUE NOV 25 2014

Note: "fair" indicates few or no clouds below 12,000 feet with no
significant weather and/or obstructions to visibility.

* = STATION THAT DOES NOT REPORT PRECIPITATION /E.G. RAIN...SNOW...ETC/
    THUNDER OR FOG.

PAZ002>004-007>009-013>016-020>023-029>032-252000-
WESTERN PENNSYLVANIA

CITY           SKY/WX    TMP DP  RH WIND       PRES   REMARKS
ERIE           CLOUDY    39  28  64 W14G21    30.01R
MEADVILLE      CLOUDY    38  26  62 SW12G23   30.00R
FRANKLIN*      CLOUDY    41  27  56 W13G23    30.01R
NEW CASTLE       N/A     42  29  60 SW16      30.04R
BEAVER COUNTY  CLOUDY    45  28  53 W14G23    30.02R
BUTLER*        MOSUNNY   46  27  46 SW14G25   30.02S
PITTSBURGH INT PTSUNNY   47  27  45 SW14G24   30.01R
PITTSBURGH     SUNNY     48  24  39 W21G28    30.00S
INDIANA*       CLOUDY    46  30  53 W10G17    30.04S
LATROBE        MOSUNNY   46  32  57 SW12G17   30.04S
WASHINGTON CO* MOSUNNY   50  28  43 SW12G24   30.04R
$$

PAZ004>006-010>012-017>019-024>028-033>037-041-042-045-046-049>053-252000-
CENTRAL PENNSYLVANIA

CITY           SKY/WX    TMP DP  RH WIND       PRES   REMARKS
BRADFORD       PTSUNNY   40  24  53 SW8G17    29.95R
DUBOIS         CLOUDY    44  26  49 SW16G23   29.97R
CLEARFIELD     PTSUNNY   44  26  49 SW14G24   29.99S
JOHNSTOWN      PTSUNNY   44  27  51 SW13G22   29.99S
ALTOONA        CLOUDY    48  29  47 W18       30.00F
STATE COLLEGE  MOSUNNY   48  28  46 W17G29    30.01S
WILLIAMSPORT   CLOUDY    51  27  39 W10       29.99S
SELINSGROVE    PTSUNNY   52  28  39 SW10G21   30.02S
FT INDIANTOWN  PTSUNNY   53  27  35 W12G21    30.01S
CAPITAL CITY   PTSUNNY   55  28  35 W14G22    30.03S
HARRISBURG     PTSUNNY   53  29  39 W14       30.02S
YORK           PTSUNNY   54  28  36 W8G17     30.03S
$$

PAZ038>040-043-044-047-048-054-055-060>062-067>071-252000-
EASTERN PENNSYLVANIA

CITY           SKY/WX    TMP DP  RH WIND       PRES   REMARKS
SCRANTON       PTSUNNY   51  27  39 W12       29.98R
MOUNT POCONO   CLOUDY    45  26  47 W16       29.96S
ALLENTOWN      CLOUDY    53  26  35 W12G20    30.00F
QUAKERTOWN*    CLOUDY    52  30  43 W6        30.01F
READING        CLOUDY    54  29  38 W12G20    30.01F
LANCASTER      PTSUNNY   52  28  39 W15       30.02S
COATESVILLE    CLOUDY    50  32  50 W9        30.03S
POTTSTOWN      CLOUDY    52  28  39 W9G17     30.02F
BLUE BELL      CLOUDY    54  32  43 W6        29.99F
DOYLESTOWN     CLOUDY    51  29  42 W8G17     29.99F
WILLOW GROVE   NOT AVBL
NORTH PHILA    CLOUDY    55  28  35 W10       30.02F
PHILADELPHIA   CLOUDY    55  28  35 W12G21    30.02F
$$



USA.gov is the U.S. government's official web portal to all federal, state and local government web resources and services.